• în Republica Moldova
  • Lista ţărilor
  • Pe 7 zile
  • Temperatura apei
  • Hartă satelitară
  • Meteo pe hartă
  • Widget-uri
  • user-avatar
    Intrare

    Meteo pe oră la Vydrica

    Astăzi, 20 Septembrie, Joi

    Timp Temperatura Precipitaţii Vânt Presiune Umiditate
    00:00 +17°C° 0 mm 2 m/s 752 mmHg 83%
    01:00 +17°C° 0 mm 2 m/s 752 mmHg 84%
    02:00 +16°C° 0 mm 2 m/s 752 mmHg 85%
    03:00 +16°C° 0 mm 2 m/s 752 mmHg 86%
    04:00 +15°C° 0 mm 2 m/s 752 mmHg 88%
    05:00 +15°C° 0 mm 2 m/s 752 mmHg 89%
    06:00 +16°C° 0 mm 2 m/s 753 mmHg 85%
    07:00 +17°C° 0 mm 2 m/s 753 mmHg 80%
    08:00 +18°C° 0 mm 2 m/s 753 mmHg 76%
    09:00 +20°C° 0 mm 2 m/s 753 mmHg 70%
    10:00 +23°C° 0 mm 2 m/s 753 mmHg 63%
    11:00 +25°C° 0 mm 2 m/s 753 mmHg 57%
    12:00 +26°C° 0 mm 2 m/s 753 mmHg 54%
    13:00 +27°C° 0 mm 2 m/s 753 mmHg 51%
    14:00 +28°C° 0 mm 3 m/s 753 mmHg 49%
    15:00 +27°C° 0 mm 2 m/s 753 mmHg 52%
    16:00 +26°C° 0 mm 2 m/s 752 mmHg 56%
    17:00 +26°C° 0 mm 1 m/s 752 mmHg 60%
    18:00 +24°C° 0 mm 1 m/s 752 mmHg 64%
    19:00 +22°C° 0 mm 1 m/s 752 mmHg 68%
    20:00 +21°C° 0 mm 1 m/s 753 mmHg 73%
    21:00 +20°C° 0 mm 1 m/s 753 mmHg 75%
    22:00 +20°C° 0 mm 1 m/s 753 mmHg 76%
    23:00 +19°C° 0 mm 1 m/s 753 mmHg 78%

    Mâine, 21 Septembrie, Vineri

    Timp Temperatura Precipitaţii Vânt Presiune Umiditate
    00:00 +19°C° 0 mm 1 m/s 753 mmHg 80%
    01:00 +19°C° 0 mm 1 m/s 753 mmHg 81%
    02:00 +18°C° 0 mm 1 m/s 753 mmHg 82%
    03:00 +18°C° 0 mm 1 m/s 753 mmHg 83%
    04:00 +16°C° 0 mm 1 m/s 753 mmHg 84%
    05:00 +16°C° 0 mm 1 m/s 753 mmHg 86%
    06:00 +18°C° 0 mm 1 m/s 753 mmHg 80%
    07:00 +20°C° 0 mm 1 m/s 753 mmHg 75%
    08:00 +21°C° 0 mm 1 m/s 753 mmHg 70%
    09:00 +23°C° 0 mm 1 m/s 753 mmHg 64%
    10:00 +24°C° 0 mm 2 m/s 753 mmHg 58%
    11:00 +26°C° 0 mm 2 m/s 753 mmHg 52%
    12:00 +27°C° 0 mm 2 m/s 753 mmHg 50%
    13:00 +27°C° 0 mm 3 m/s 753 mmHg 48%
    14:00 +28°C° 0 mm 3 m/s 752 mmHg 45%
    15:00 +27°C° 0 mm 3 m/s 752 mmHg 49%
    16:00 +26°C° 0 mm 2 m/s 752 mmHg 53%
    17:00 +25°C° 0 mm 2 m/s 751 mmHg 57%
    18:00 +24°C° 0 mm 2 m/s 751 mmHg 60%
    19:00 +21°C° 0 mm 2 m/s 751 mmHg 64%
    20:00 +19°C° 0 mm 2 m/s 751 mmHg 67%
    21:00 +19°C° 0 mm 3 m/s 751 mmHg 69%
    22:00 +18°C° 0 mm 3 m/s 751 mmHg 70%
    23:00 +18°C° 0 mm 3 m/s 751 mmHg 72%

    Poimâine, 22 Septembrie, Sâmbătă

    Timp Temperatura Precipitaţii Vânt Presiune Umiditate
    00:00 +18°C° 0 mm 3 m/s 750 mmHg 72%
    01:00 +18°C° 0 mm 4 m/s 750 mmHg 72%
    02:00 +17°C° 0 mm 4 m/s 750 mmHg 73%
    03:00 +17°C° 0 mm 4 m/s 749 mmHg 72%
    04:00 +17°C° 0 mm 4 m/s 749 mmHg 72%
    05:00 +17°C° 0 mm 4 m/s 749 mmHg 72%
    06:00 +17°C° 0 mm 4 m/s 749 mmHg 69%
    07:00 +17°C° 0 mm 5 m/s 749 mmHg 65%
    08:00 +19°C° 0 mm 5 m/s 748 mmHg 61%
    09:00 +20°C° 0 mm 5 m/s 748 mmHg 58%
    10:00 +22°C° 0 mm 5 m/s 748 mmHg 54%
    11:00 +23°C° 0 mm 5 m/s 748 mmHg 50%
    12:00 +23°C° 0.1 mm 5 m/s 748 mmHg 54%
    13:00 +22°C° 0.1 mm 5 m/s 748 mmHg 58%
    14:00 +22°C° 0.1 mm 5 m/s 748 mmHg 62%
    15:00 +19°C° 0.2 mm 5 m/s 748 mmHg 67%
    16:00 +17°C° 0.2 mm 4 m/s 748 mmHg 73%
    17:00 +14°C° 0.2 mm 4 m/s 749 mmHg 78%
    18:00 +13°C° 0.2 mm 4 m/s 749 mmHg 79%
    19:00 +13°C° 0.2 mm 4 m/s 749 mmHg 80%
    20:00 +12°C° 0.2 mm 4 m/s 750 mmHg 80%
    21:00 +11°C° 0.7 mm 4 m/s 750 mmHg 83%
    22:00 +10°C° 0.7 mm 3 m/s 750 mmHg 86%
    23:00 +10°C° 0.7 mm 3 m/s 750 mmHg 89%

    23 Septembrie, Duminică

    Timp Temperatura Precipitaţii Vânt Presiune Umiditate
    00:00 +10°C° 0.7 mm 3 m/s 750 mmHg 90%
    01:00 +9°C° 0.7 mm 3 m/s 750 mmHg 90%
    02:00 +9°C° 0.7 mm 3 m/s 750 mmHg 91%
    03:00 +9°C° 0.1 mm 3 m/s 749 mmHg 91%
    04:00 +8°C° 0.1 mm 4 m/s 749 mmHg 91%
    05:00 +8°C° 0.1 mm 4 m/s 749 mmHg 92%
    06:00 +8°C° 0 mm 4 m/s 749 mmHg 90%
    07:00 +8°C° 0 mm 4 m/s 749 mmHg 89%
    08:00 +9°C° 0 mm 5 m/s 749 mmHg 88%
    09:00 +10°C° 0 mm 5 m/s 749 mmHg 78%
    10:00 +13°C° 0 mm 6 m/s 748 mmHg 69%
    11:00 +14°C° 0 mm 6 m/s 748 mmHg 60%
    12:00 +15°C° 0 mm 6 m/s 748 mmHg 56%
    13:00 +16°C° 0 mm 6 m/s 748 mmHg 51%
    14:00 +16°C° 0 mm 7 m/s 748 mmHg 47%
    15:00 +15°C° 0 mm 6 m/s 748 mmHg 50%
    16:00 +15°C° 0 mm 5 m/s 748 mmHg 52%
    17:00 +14°C° 0 mm 3 m/s 749 mmHg 55%
    18:00 +13°C° 0 mm 3 m/s 749 mmHg 59%
    19:00 +11°C° 0 mm 3 m/s 749 mmHg 63%
    20:00 +10°C° 0 mm 3 m/s 749 mmHg 67%
    21:00 +9°C° 0 mm 3 m/s 749 mmHg 69%
    22:00 +9°C° 0 mm 3 m/s 749 mmHg 71%
    23:00 +8°C° 0 mm 2 m/s 749 mmHg 73%

    24 Septembrie, Luni

    Timp Temperatura Precipitaţii Vânt Presiune Umiditate
    00:00 +8°C° 0 mm 2 m/s 748 mmHg 73%
    01:00 +8°C° 0 mm 2 m/s 748 mmHg 73%
    02:00 +8°C° 0 mm 2 m/s 747 mmHg 74%
    03:00 +8°C° 0.1 mm 3 m/s 747 mmHg 73%
    04:00 +8°C° 0.1 mm 3 m/s 746 mmHg 73%
    05:00 +9°C° 0.1 mm 3 m/s 746 mmHg 72%
    06:00 +8°C° 0.4 mm 4 m/s 745 mmHg 75%
    07:00 +8°C° 0.4 mm 5 m/s 744 mmHg 79%
    08:00 +9°C° 0.4 mm 6 m/s 743 mmHg 83%
    09:00 +9°C° 1.1 mm 6 m/s 742 mmHg 83%
    10:00 +9°C° 1.1 mm 7 m/s 741 mmHg 83%
    11:00 +9°C° 1.1 mm 7 m/s 740 mmHg 84%
    12:00 +10°C° 0.7 mm 7 m/s 739 mmHg 83%
    13:00 +10°C° 0.7 mm 7 m/s 737 mmHg 83%
    14:00 +11°C° 0.7 mm 7 m/s 736 mmHg 83%
    15:00 +12°C° 2.7 mm 7 m/s 735 mmHg 86%
    16:00 +14°C° 2.7 mm 6 m/s 734 mmHg 88%
    17:00 +15°C° 2.7 mm 6 m/s 733 mmHg 91%
    18:00 +14°C° 1 mm 6 m/s 732 mmHg 90%
    19:00 +13°C° 1 mm 6 m/s 731 mmHg 89%
    20:00 +11°C° 1 mm 6 m/s 731 mmHg 88%
    21:00 +11°C° 0.1 mm 6 m/s 731 mmHg 86%
    22:00 +10°C° 0.1 mm 6 m/s 730 mmHg 85%
    23:00 +9°C° 0.1 mm 7 m/s 730 mmHg 84%

    25 Septembrie, Marţi

    Timp Temperatura Precipitaţii Vânt Presiune Umiditate
    00:00 +9°C° 0.2 mm 7 m/s 730 mmHg 84%
    01:00 +9°C° 0.2 mm 7 m/s 730 mmHg 84%
    02:00 +9°C° 0.2 mm 8 m/s 729 mmHg 84%
    03:00 +9°C° 0.1 mm 7 m/s 730 mmHg 85%
    04:00 +8°C° 0.1 mm 7 m/s 730 mmHg 86%
    05:00 +8°C° 0.1 mm 6 m/s 730 mmHg 87%
    06:00 +8°C° 0.3 mm 7 m/s 731 mmHg 86%
    07:00 +7°C° 0.3 mm 8 m/s 732 mmHg 85%
    08:00 +6°C° 0.3 mm 8 m/s 733 mmHg 84%
    09:00 +7°C° 0.1 mm 8 m/s 734 mmHg 82%
    10:00 +7°C° 0.1 mm 9 m/s 736 mmHg 81%
    11:00 +7°C° 0.1 mm 9 m/s 737 mmHg 79%
    12:00 +7°C° 0.2 mm 9 m/s 738 mmHg 78%
    13:00 +7°C° 0.2 mm 9 m/s 739 mmHg 77%
    14:00 +7°C° 0.2 mm 8 m/s 740 mmHg 76%
    15:00 +7°C° 0.1 mm 8 m/s 741 mmHg 75%
    16:00 +8°C° 0.1 mm 7 m/s 742 mmHg 73%
    17:00 +8°C° 0.1 mm 7 m/s 743 mmHg 72%
    18:00 +7°C° 0 mm 6 m/s 743 mmHg 73%
    19:00 +5°C° 0 mm 6 m/s 744 mmHg 74%
    20:00 +6°C° 0 mm 5 m/s 745 mmHg 75%
    21:00 +6°C° 0 mm 5 m/s 745 mmHg 75%
    22:00 +5°C° 0 mm 5 m/s 746 mmHg 75%
    23:00 +5°C° 0 mm 5 m/s 747 mmHg 75%
    Arată mai mult